Theta_e
307 306 306 304 304 303 302 304 305 306 306 306 308 309 310 309 312 309 312 310 305 307
307 306 305 305 304 304 304 306 308 306 306 306 307 307 306 308 310 311 312 311 311 310
307 307 306 305 305 305 305 305 305 305 306 306 307 307 305 307 307 310 308 313 312 311
306 306 307 306 306 306 304 304 304 306 305 306 308 307 308 307 309 310 310 310 311 311
306 305 306 307 309 307 309 308 304 306 304 306 308 310 310 311 311 308 307 308 309 308
310 305 304 306 309 310 310 310 309 305 305 307 304 308 308 309 306 306 306 306 304 304
309 310 308 309 309 310 311 311 307 306 305 303 305 306 307 308 306 303 303 304 303 303
309 311 310 310 307 312 309 308 309 307 304 300 302 303 302 303 306 306 306 306 305 305
312 311 311 308 305 306 307 307 306 307 306 300 302 303 304 303 302 309 310 306 307 306
311 310 310 309 308 304 305 304 304 309 307 302 299 302 301 303 301 306 307 309 310 309
311 310 310 308 308 304 304 304 303 309 309 304 302 302 300 300 301 303 306 307 306 307
311 309 307 308 309 307 303 302 304 308 310 308 304 302 299 297 296 302 304 308 309 308
311 311 309 305 309 309 308 306 305 305 305 306 305 303 300 297 296 296 298 303 305 307
311 309 310 305 303 309 309 311 310 305 304 304 304 304 300 298 297 297 297 297 304 301
Wind_Speed
4 3 3 4 4 4 3 4 5 6 6 7 7 6 4 3 3 2 3 5 3 2
4 4 5 6 4 4 5 4 5 6 6 7 7 6 5 3 5 4 4 4 3 1
5 4 4 3 6 5 5 4 5 6 6 6 6 6 6 4 4 4 3 4 7 4
5 3 3 4 6 5 4 4 5 5 5 5 6 6 5 5 4 5 4 5 6 6
5 3 5 5 6 6 5 4 5 4 4 5 5 5 6 5 5 5 5 6 6 6
6 5 6 7 5 6 6 5 3 2 4 5 5 5 6 4 5 5 4 5 5 6
6 6 6 6 5 6 6 5 3 1 2 3 4 4 5 5 5 5 5 4 4 6
6 6 6 5 6 5 5 4 3 3 1 2 3 2 4 4 5 5 5 5 5 4
5 5 5 6 5 4 4 5 3 3 4 2 3 2 3 4 3 4 3 3 4 4
5 5 6 3 4 5 5 3 5 2 4 4 4 8 3 2 1 2 3 1 1 2
5 5 6 3 3 4 4 4 4 5 4 4 5 8 7 4 3 3 4 2 2 3
5 5 4 4 5 4 4 3 4 3 5 5 7 7 7 4 2 3 5 3 3 4
6 6 5 6 5 4 4 4 4 6 5 7 7 8 9 6 2 3 3 4 3 4
5 7 6 4 4 5 5 5 4 5 6 7 7 7 9 11 4 4 3 3 3 2
Wind_Direction
297 267 275 269 278 279 271 280 292 309 310 311 309 313 326 330 331 335 348 337 315 298
311 282 265 277 289 276 276 276 302 313 309 315 317 328 350 0 329 334 344 338 356 303
288 284 281 292 288 290 288 278 319 314 317 322 333 345 2 355 340 351 0 334 351 358
282 294 293 295 280 271 286 309 315 314 318 327 329 343 348 358 16 40 347 358 354 22
275 286 277 275 284 282 269 274 281 292 306 318 337 350 346 349 28 36 17 2 26 20
265 261 266 266 258 274 281 273 283 329 320 324 334 353 344 18 41 31 24 21 27 28
258 252 263 263 260 256 267 285 282 318 357 347 337 356 345 19 35 41 21 29 42 37
259 253 246 258 256 255 270 284 293 245 233 324 306 322 3 23 21 13 10 3 4 9
282 296 251 265 254 269 267 292 289 255 227 269 289 296 2 14 13 352 8 359 349 8
263 272 268 274 252 260 251 266 278 265 212 245 273 289 291 354 338 299 304 333 295 356
257 262 266 254 235 250 238 239 249 246 221 243 258 261 275 317 349 333 326 298 257 223
249 259 243 251 247 232 235 238 244 243 247 230 263 264 266 287 316 321 323 328 269 210
256 243 230 223 259 228 215 236 238 259 243 234 245 240 226 206 238 289 303 323 344 198
246 252 243 233 216 243 227 237 241 254 259 245 236 253 222 195 199 222 262 289 305 279